| time (UTC) | temp F | wind direction | speed MPH | gust MPH | rain 1hr in | rain 24hr in | rain mn in | humidity % | barometer mb |
| 20260906183446 | 86 | 62 | 2.0 | 4.0 | 0.00 | 0.00 | 0.00 | 48 | 1022.9 |
| 20260906182442 | 87 | 0.0 | 0.0 | 0.00 | 0.00 | 0.00 | 48 | 1023.0 | |
| 20260906181438 | 87 | 97 | 5.0 | 7.0 | 0.00 | 0.00 | 0.00 | 47 | 1022.6 |
| 20260906180436 | 87 | 84 | 4.0 | 6.0 | 0.00 | 0.00 | 0.00 | 45 | 1022.8 |
| 20260906175432 | 87 | 133 | 3.0 | 7.0 | 0.00 | 0.00 | 0.00 | 45 | 1023.1 |
| 20260906174448 | 87 | 165 | 2.0 | 4.0 | 0.00 | 0.00 | 0.00 | 46 | 1023.0 |
| 20260906173425 | 87 | 119 | 3.0 | 4.0 | 0.00 | 0.00 | 0.00 | 45 | 1022.8 |
| 20260906172423 | 87 | 70 | 5.0 | 8.0 | 0.00 | 0.00 | 0.00 | 44 | 1022.8 |
| 20260906171419 | 88 | 113 | 7.0 | 11.0 | 0.00 | 0.00 | 0.00 | 43 | 1022.7 |
| 20260906170415 | 88 | 83 | 9.0 | 11.0 | 0.00 | 0.00 | 0.00 | 44 | 1022.5 |
| 20260906165532 | 89 | 90 | 6.0 | 11.0 | 0.00 | 0.00 | 0.00 | 40 | 1022.5 |
| 20260906164529 | 89 | 128 | 9.0 | 11.0 | 0.00 | 0.00 | 0.00 | 39 | 1022.6 |
| 20260906163505 | 89 | 105 | 10.0 | 13.0 | 0.00 | 0.00 | 0.00 | 41 | 1022.6 |
| 20260906162502 | 90 | 114 | 2.0 | 4.0 | 0.00 | 0.00 | 0.00 | 41 | 1022.6 |
| 20260906161459 | 89 | 106 | 9.0 | 11.0 | 0.00 | 0.00 | 0.00 | 43 | 1022.5 |
| 20260906160457 | 91 | 97 | 4.0 | 6.0 | 0.00 | 0.00 | 0.00 | 40 | 1022.4 |
| 20260906155454 | 91 | 9 | 4.0 | 7.0 | 0.00 | 0.00 | 0.00 | 40 | 1022.5 |
| 20260906154449 | 92 | 90 | 3.0 | 7.0 | 0.00 | 0.00 | 0.00 | 41 | 1022.6 |
| 20260906153446 | 91 | 162 | 4.0 | 8.0 | 0.00 | 0.00 | 0.00 | 41 | 1022.6 |
| 20260906152443 | 90 | 238 | 6.0 | 13.0 | 0.00 | 0.00 | 0.00 | 43 | 1022.5 |
| 20260906151439 | 91 | 120 | 6.0 | 11.0 | 0.00 | 0.00 | 0.00 | 40 | 1022.5 |
| 20260906150456 | 91 | 128 | 5.0 | 11.0 | 0.00 | 0.00 | 0.00 | 41 | 1022.5 |
| 20260906145433 | 92 | 103 | 7.0 | 13.0 | 0.00 | 0.00 | 0.00 | 39 | 1022.5 |
| 20260906144430 | 92 | 6 | 7.0 | 11.0 | 0.00 | 0.00 | 0.00 | 39 | 1022.5 |
| 20260906143427 | 93 | 68 | 4.0 | 9.0 | 0.00 | 0.00 | 0.00 | 39 | 1022.4 |
| 20260906142425 | 93 | 104 | 3.0 | 9.0 | 0.00 | 0.00 | 0.00 | 38 | 1022.5 |
| 20260906141421 | 91 | 107 | 10.0 | 16.0 | 0.00 | 0.00 | 0.00 | 38 | 1022.6 |
| 20260906140417 | 92 | 82 | 6.0 | 11.0 | 0.00 | 0.00 | 0.00 | 38 | 1022.5 |
| 20260906135514 | 91 | 287 | 7.0 | 16.0 | 0.00 | 0.00 | 0.00 | 39 | 1022.7 |
| 20260906134511 | 93 | 90 | 8.0 | 16.0 | 0.00 | 0.00 | 0.00 | 37 | 1022.7 |
| 20260906133507 | 93 | 135 | 5.0 | 11.0 | 0.00 | 0.00 | 0.00 | 36 | 1022.8 |
| 20260906132506 | 95 | 180 | 1.0 | 2.0 | 0.00 | 0.00 | 0.00 | 34 | 1022.8 |
| 20260906130458 | 93 | 125 | 5.0 | 8.0 | 0.00 | 0.00 | 0.00 | 35 | 1022.9 |
| 20260906125454 | 93 | 96 | 7.0 | 11.0 | 0.00 | 0.00 | 0.00 | 33 | 1023.0 |
| 20260906124452 | 95 | 155 | 4.0 | 9.0 | 0.00 | 0.00 | 0.00 | 30 | 1023.0 |
| 20260906123449 | 94 | 125 | 6.0 | 11.0 | 0.00 | 0.00 | 0.00 | 29 | 1023.1 |
| 20260906122446 | 94 | 76 | 6.0 | 8.0 | 0.00 | 0.00 | 0.00 | 27 | 1023.2 |
| 20260906121441 | 95 | 106 | 6.0 | 8.0 | 0.00 | 0.00 | 0.00 | 26 | 1023.2 |
| 20260906120438 | 95 | 148 | 5.0 | 9.0 | 0.00 | 0.00 | 0.00 | 28 | 1023.2 |
| 20260906115518 | 95 | 90 | 9.0 | 13.0 | 0.00 | 0.00 | 0.00 | 33 | 1023.3 |
| 20260906114452 | 96 | 84 | 7.0 | 9.0 | 0.00 | 0.00 | 0.00 | 32 | 1023.3 |
| 20260906113428 | 96 | 120 | 7.0 | 8.0 | 0.00 | 0.00 | 0.00 | 27 | 1023.3 |
| 20260906112425 | 96 | 52 | 4.0 | 6.0 | 0.00 | 0.00 | 0.00 | 28 | 1023.3 |
| 20260906111442 | 96 | 90 | 3.0 | 8.0 | 0.00 | 0.00 | 0.00 | 27 | 1023.5 |
| 20260906110419 | 98 | 86 | 1.0 | 2.0 | 0.00 | 0.00 | 0.00 | 26 | 1023.6 |
| 20260906105415 | 97 | 137 | 1.0 | 4.0 | 0.00 | 0.00 | 0.00 | 27 | 1023.7 |
| 20260906104512 | 94 | 49 | 1.0 | 2.0 | 0.00 | 0.00 | 0.00 | 29 | 1023.7 |
| 20260906103509 | 96 | 0.0 | 0.0 | 0.00 | 0.00 | 0.00 | 28 | 1023.7 | |
| 20260906102506 | 98 | 0.0 | 0.0 | 0.00 | 0.00 | 0.00 | 27 | 1023.9 | |
| 20260906101503 | 94 | 0.0 | 0.0 | 0.00 | 0.00 | 0.00 | 30 | 1023.9 | |
| 20260906100459 | 94 | 0.0 | 0.0 | 0.00 | 0.00 | 0.00 | 31 | 1023.9 | |
| 20260906095516 | 93 | 248 | 1.0 | 2.0 | 0.00 | 0.00 | 0.00 | 31 | 1024.0 |
| 20260906094453 | 93 | 128 | 1.0 | 2.0 | 0.00 | 0.00 | 0.00 | 32 | 1024.1 |
| 20260906093449 | 91 | 0.0 | 0.0 | 0.00 | 0.00 | 0.00 | 32 | 1024.0 | |
| 20260906092446 | 90 | 158 | 0.0 | 2.0 | 0.00 | 0.00 | 0.00 | 34 | 1024.1 |
| 20260906091443 | 89 | 0.0 | 0.0 | 0.00 | 0.00 | 0.00 | 34 | 1024.0 | |
| 20260906090440 | 87 | 225 | 0.0 | 2.0 | 0.00 | 0.00 | 0.00 | 36 | 1024.0 |
| 20260906085436 | 85 | 225 | 2.0 | 4.0 | 0.00 | 0.00 | 0.00 | 37 | 1024.0 |
| 20260906084434 | 85 | 248 | 2.0 | 4.0 | 0.00 | 0.00 | 0.00 | 38 | 1023.9 |
| 20260906083431 | 83 | 261 | 3.0 | 4.0 | 0.00 | 0.00 | 0.00 | 40 | 1024.0 |
| 20260906082427 | 83 | 232 | 2.0 | 4.0 | 0.00 | 0.00 | 0.00 | 41 | 1023.9 |
| 20260906081423 | 83 | 225 | 1.0 | 2.0 | 0.00 | 0.00 | 0.00 | 42 | 1023.8 |
| 20260906080441 | 82 | 225 | 1.0 | 2.0 | 0.00 | 0.00 | 0.00 | 43 | 1023.7 |
| 20260906075417 | 81 | 232 | 1.0 | 2.0 | 0.00 | 0.00 | 0.00 | 44 | 1023.7 |
| 20260906074515 | 80 | 241 | 2.0 | 4.0 | 0.00 | 0.00 | 0.00 | 46 | 1023.8 |
| 20260906073510 | 79 | 244 | 2.0 | 4.0 | 0.00 | 0.00 | 0.00 | 48 | 1023.5 |
| 20260906072507 | 78 | 253 | 3.0 | 6.0 | 0.00 | 0.00 | 0.00 | 49 | 1023.6 |
| 20260906071504 | 77 | 256 | 3.0 | 4.0 | 0.00 | 0.00 | 0.00 | 51 | 1023.6 |
| 20260906070501 | 76 | 248 | 4.0 | 6.0 | 0.00 | 0.00 | 0.00 | 53 | 1023.5 |
| 20260906065539 | 75 | 255 | 4.0 | 7.0 | 0.00 | 0.00 | 0.00 | 55 | 1023.6 |
| 20260906064455 | 75 | 270 | 3.0 | 4.0 | 0.00 | 0.00 | 0.00 | 56 | 1023.6 |
| 20260906063451 | 74 | 248 | 3.0 | 4.0 | 0.00 | 0.00 | 0.00 | 57 | 1023.5 |
| 20260906062448 | 74 | 254 | 4.0 | 7.0 | 0.00 | 0.00 | 0.00 | 58 | 1023.5 |
| 20260906061444 | 73 | 258 | 3.0 | 6.0 | 0.00 | 0.00 | 0.00 | 59 | 1023.5 |
| 20260906060442 | 73 | 270 | 4.0 | 6.0 | 0.00 | 0.00 | 0.00 | 60 | 1023.5 |
| 20260906055438 | 74 | 248 | 4.0 | 7.0 | 0.00 | 0.00 | 0.00 | 58 | 1023.3 |
| 20260906054436 | 74 | 270 | 4.0 | 7.0 | 0.00 | 0.00 | 0.00 | 58 | 1023.2 |
| 20260906053431 | 74 | 257 | 3.0 | 4.0 | 0.00 | 0.00 | 0.00 | 59 | 1023.1 |
| 20260906052428 | 73 | 253 | 2.0 | 4.0 | 0.00 | 0.00 | 0.00 | 61 | 1023.1 |
| 20260906051425 | 73 | 248 | 2.0 | 4.0 | 0.00 | 0.00 | 0.00 | 61 | 1023.0 |
| 20260906050422 | 74 | 248 | 1.0 | 2.0 | 0.00 | 0.00 | 0.00 | 61 | 1022.9 |
| 20260906045419 | 74 | 248 | 1.0 | 2.0 | 0.00 | 0.00 | 0.00 | 61 | 1022.9 |
| 20260906044416 | 74 | 261 | 3.0 | 4.0 | 0.00 | 0.00 | 0.00 | 62 | 1023.0 |
| 20260906043512 | 74 | 248 | 3.0 | 6.0 | 0.00 | 0.00 | 0.00 | 64 | 1023.1 |
| 20260906042550 | 74 | 248 | 3.0 | 4.0 | 0.00 | 0.00 | 0.00 | 63 | 1023.1 |
| 20260906041505 | 74 | 262 | 6.0 | 8.0 | 0.00 | 0.00 | 0.00 | 63 | 1023.1 |
| 20260906040502 | 74 | 270 | 4.0 | 7.0 | 0.00 | 0.00 | 0.00 | 64 | 1023.1 |
| 20260906035459 | 75 | 277 | 4.0 | 6.0 | 0.00 | 0.00 | 0.00 | 64 | 1023.0 |
| 20260906034456 | 74 | 0.0 | 2.0 | 0.00 | 0.00 | 0.00 | 65 | 1023.1 | |
| 20260906033453 | 74 | 270 | 4.0 | 6.0 | 0.00 | 0.00 | 0.00 | 66 | 1023.1 |
| 20260906031506 | 74 | 286 | 4.0 | 4.0 | 0.00 | 0.00 | 0.00 | 67 | 1023.1 |
| 20260906030443 | 74 | 270 | 4.0 | 6.0 | 0.00 | 0.00 | 0.00 | 66 | 1023.2 |
| 20260906025439 | 75 | 270 | 3.0 | 6.0 | 0.00 | 0.00 | 0.00 | 66 | 1023.2 |
| 20260906024456 | 75 | 248 | 3.0 | 4.0 | 0.00 | 0.00 | 0.00 | 66 | 1023.2 |
| 20260906023453 | 75 | 248 | 2.0 | 4.0 | 0.00 | 0.00 | 0.00 | 68 | 1023.3 |
| 20260906022430 | 75 | 248 | 2.0 | 4.0 | 0.00 | 0.00 | 0.00 | 68 | 1023.4 |
| 20260906021426 | 75 | 225 | 2.0 | 2.0 | 0.00 | 0.00 | 0.00 | 68 | 1023.4 |
| 20260906020444 | 75 | 248 | 3.0 | 4.0 | 0.00 | 0.00 | 0.00 | 68 | 1023.5 |
| 20260906015440 | 75 | 260 | 1.0 | 4.0 | 0.00 | 0.00 | 0.00 | 69 | 1023.5 |
| 20260906014417 | 76 | 270 | 2.0 | 4.0 | 0.00 | 0.00 | 0.00 | 69 | 1023.7 |
| 20260906013513 | 76 | 248 | 1.0 | 2.0 | 0.00 | 0.00 | 0.00 | 70 | 1023.8 |
| 20260906012510 | 76 | 248 | 0.0 | 2.0 | 0.00 | 0.00 | 0.00 | 70 | 1023.9 |
| 20260906011548 | 76 | 255 | 2.0 | 2.0 | 0.00 | 0.00 | 0.00 | 70 | 1023.8 |
| 20260906010504 | 76 | 238 | 3.0 | 4.0 | 0.00 | 0.00 | 0.00 | 71 | 1023.9 |
| 20260906005500 | 76 | 270 | 3.0 | 4.0 | 0.00 | 0.00 | 0.00 | 71 | 1023.9 |
| 20260906004458 | 76 | 255 | 4.0 | 6.0 | 0.00 | 0.00 | 0.00 | 70 | 1023.9 |
| 20260906003455 | 77 | 255 | 3.0 | 6.0 | 0.00 | 0.00 | 0.00 | 69 | 1023.9 |
| 20260906002451 | 77 | 248 | 2.0 | 4.0 | 0.00 | 0.00 | 0.00 | 71 | 1023.8 |
| 20260906001447 | 77 | 248 | 0.0 | 2.0 | 0.00 | 0.00 | 0.00 | 71 | 1023.9 |
| 20260906000444 | 77 | 248 | 1.0 | 2.0 | 0.00 | 0.00 | 0.00 | 71 | 1023.8 |
| 20260905235441 | 77 | 221 | 2.0 | 2.0 | 0.00 | 0.00 | 0.00 | 72 | 1023.9 |
| 20260905234438 | 77 | 248 | 2.0 | 2.0 | 0.00 | 0.00 | 0.00 | 72 | 1024.0 |
| 20260905233434 | 77 | 242 | 2.0 | 4.0 | 0.00 | 0.00 | 0.00 | 72 | 1024.0 |
| 20260905232431 | 77 | 225 | 2.0 | 4.0 | 0.00 | 0.00 | 0.00 | 72 | 1024.0 |
| 20260905231428 | 78 | 250 | 2.0 | 4.0 | 0.00 | 0.00 | 0.00 | 73 | 1024.1 |
| 20260905230425 | 78 | 270 | 3.0 | 4.0 | 0.00 | 0.00 | 0.00 | 73 | 1024.2 |
| 20260905225423 | 78 | 248 | 2.0 | 2.0 | 0.00 | 0.00 | 0.00 | 72 | 1024.2 |
| 20260905224420 | 78 | 255 | 2.0 | 4.0 | 0.00 | 0.00 | 0.00 | 72 | 1024.2 |
| 20260905223415 | 79 | 0.0 | 0.0 | 0.00 | 0.00 | 0.00 | 71 | 1024.3 | |
| 20260905222512 | 79 | 0.0 | 0.0 | 0.00 | 0.00 | 0.00 | 71 | 1024.2 | |
| 20260905221509 | 79 | 240 | 1.0 | 2.0 | 0.00 | 0.00 | 0.00 | 71 | 1024.2 |
| 20260905220505 | 80 | 248 | 2.0 | 4.0 | 0.00 | 0.00 | 0.00 | 71 | 1024.2 |
| 20260905215502 | 81 | 274 | 2.0 | 2.0 | 0.00 | 0.00 | 0.00 | 67 | 1024.3 |
| 20260905214459 | 81 | 0 | 1.0 | 2.0 | 0.00 | 0.00 | 0.00 | 66 | 1024.3 |
| 20260905213456 | 80 | 23 | 1.0 | 2.0 | 0.00 | 0.00 | 0.00 | 69 | 1024.3 |
| 20260905212453 | 80 | 0.0 | 0.0 | 0.00 | 0.00 | 0.00 | 71 | 1024.3 | |
| 20260905211449 | 80 | 0.0 | 0.0 | 0.00 | 0.00 | 0.00 | 72 | 1024.3 | |
| 20260905210447 | 81 | 23 | 0.0 | 2.0 | 0.00 | 0.00 | 0.00 | 72 | 1024.3 |
| 20260905205504 | 81 | 0.0 | 2.0 | 0.00 | 0.00 | 0.00 | 72 | 1024.4 | |
| 20260905204440 | 81 | 0.0 | 0.0 | 0.00 | 0.00 | 0.00 | 72 | 1024.4 | |
| 20260905203438 | 81 | 0.0 | 0.0 | 0.00 | 0.00 | 0.00 | 73 | 1024.4 | |
| 20260905202434 | 81 | 23 | 1.0 | 2.0 | 0.00 | 0.00 | 0.00 | 73 | 1024.5 |
| 20260905201430 | 81 | 0.0 | 2.0 | 0.00 | 0.00 | 0.00 | 74 | 1024.4 | |
| 20260905200427 | 81 | 0.0 | 2.0 | 0.00 | 0.00 | 0.00 | 75 | 1024.4 | |
| 20260905195424 | 81 | 23 | 1.0 | 4.0 | 0.00 | 0.00 | 0.00 | 75 | 1024.2 |
| 20260905194422 | 82 | 0.0 | 2.0 | 0.00 | 0.00 | 0.00 | 76 | 1024.2 | |
| 20260905193437 | 82 | 0.0 | 2.0 | 0.00 | 0.00 | 0.00 | 75 | 1024.1 | |
| 20260905192514 | 82 | 0.0 | 0.0 | 0.00 | 0.00 | 0.00 | 76 | 1024.2 | |
| 20260905191511 | 82 | 23 | 1.0 | 2.0 | 0.00 | 0.00 | 0.00 | 76 | 1024.1 |
| 20260905190507 | 82 | 0.0 | 2.0 | 0.00 | 0.00 | 0.00 | 76 | 1023.9 | |
| 20260905185506 | 82 | 45 | 0.0 | 4.0 | 0.00 | 0.00 | 0.00 | 75 | 1023.8 |
| 20260905184501 | 82 | 0.0 | 0.0 | 0.00 | 0.00 | 0.00 | 74 | 1023.8 | |
| 20260905183519 | 82 | 45 | 1.0 | 4.0 | 0.00 | 0.00 | 0.00 | 74 | 1023.7 |